Location: Équennes
(49.7375°N, 1.9622°E)
Time: 19:04:50
(UTC+00:00)

Cosmos 2278 - Pass Details

Date: 25 September 2023
Orbit: 838 x 853 km, 71.1° (Epoch: 08 December)

Event Time Altitude Azimuth Distance (km) Brightness Sun altitude
Rises 03:40:13 0° 325° (NW) 3,427 6.8 -20.0°
Reaches altitude 10° 03:42:53 10° 316° (NW) 2,489 5.9 -19.6°
Enters shadow 03:46:42 29° 278° (W) 1,506 4.5 -19.0°
Exits shadow 03:54:07 - 188° (S) 2,905 6.2 -17.9°
Sets 03:55:31 0° 184° (S) 3,408 6.6 -17.7°
